TimeEDT,TemperatureF,Dew PointF,Humidity,Sea Level PressureIn,VisibilityMPH,Wind Direction,Wind SpeedMPH,Gust SpeedMPH,PrecipitationIn,Events,Conditions,WindDirDegrees,DateUTC
12:14 AM,37.8,34.2,87,29.77,7.0,North,20.7,34.5,N/A,Rain,Light Rain,350,2012-10-30 04:14:00
12:35 AM,37.4,34.2,88,29.76,5.0,North,21.9,34.5,N/A,Rain,Light Rain,360,2012-10-30 04:35:00
12:54 AM,36.9,34.3,91,29.74,7.0,North,25.3,36.8,N/A,Rain,Rain,350,2012-10-30 04:54:00
1:15 AM,36.9,34.7,92,29.71,7.0,North,25.3,32.2,N/A,Rain,Light Rain,350,2012-10-30 05:15:00
1:35 AM,37.0,34.7,91,29.70,7.0,North,25.3,33.4,N/A,Rain,Light Rain,350,2012-10-30 05:35:00
1:54 AM,37.0,34.7,91,29.69,7.0,North,26.5,39.1,N/A,Rain,Rain,350,2012-10-30 05:54:00
2:15 AM,37.0,34.9,92,29.68,4.0,North,26.5,38.0,N/A,Rain,Rain,360,2012-10-30 06:15:00
2:35 AM,36.9,35.1,93,29.67,4.0,North,25.3,39.1,N/A,Rain,Light Rain,350,2012-10-30 06:35:00
2:54 AM,36.9,35.1,93,29.66,3.0,North,26.5,36.8,N/A,Rain,Light Rain,360,2012-10-30 06:54:00
3:15 AM,36.7,35.2,95,29.64,4.0,North,25.3,40.3,N/A,Rain,Light Rain,350,2012-10-30 07:15:00
3:54 AM,37.0,35.6,95,29.62,7.0,North,24.2,36.8,N/A,,Light Drizzle,350,2012-10-30 07:54:00
4:15 AM,36.7,35.2,95,29.60,3.0,North,25.3,36.8,N/A,,Drizzle,350,2012-10-30 08:15:00
4:54 AM,36.9,35.6,95,29.59,7.0,North,25.3,38.0,N/A,Rain,Rain,350,2012-10-30 08:54:00
5:15 AM,36.7,35.1,94,29.58,5.0,North,21.9,39.1,N/A,Rain,Light Rain,350,2012-10-30 09:15:00
5:34 AM,36.9,35.2,94,29.57,5.0,North,25.3,39.1,N/A,Rain,Light Rain,350,2012-10-30 09:34:00
5:55 AM,36.9,35.1,93,29.56,5.0,North,23.0,36.8,N/A,Rain,Light Rain,350,2012-10-30 09:55:00
6:15 AM,37.0,35.2,93,29.56,7.0,North,25.3,33.4,N/A,Rain,Light Rain,350,2012-10-30 10:15:00
6:34 AM,37.0,35.6,95,29.57,5.0,North,24.2,33.4,N/A,Rain,Light Rain,350,2012-10-30 10:34:00
6:55 AM,37.0,35.6,95,29.56,4.0,North,26.5,38.0,N/A,Rain,Light Rain,350,2012-10-30 10:55:00
7:15 AM,37.0,35.6,95,29.56,4.0,North,27.6,38.0,N/A,Rain,Light Rain,350,2012-10-30 11:15:00
7:34 AM,37.0,35.8,95,29.55,4.0,North,27.6,36.8,N/A,Rain,Light Rain,350,2012-10-30 11:34:00
7:55 AM,37.0,35.8,95,29.55,4.0,North,25.3,34.5,N/A,Rain,Light Rain,350,2012-10-30 11:55:00
8:15 AM,37.2,36.0,95,29.56,4.0,North,19.6,32.2,N/A,Rain,Light Rain,350,2012-10-30 12:15:00
8:34 AM,36.9,35.6,95,29.56,4.0,North,25.3,33.4,N/A,Snow,Light Snow,360,2012-10-30 12:34:00
8:55 AM,37.4,36.3,96,29.55,4.0,North,25.3,32.2,N/A,Rain,Light Rain,350,2012-10-30 12:55:00
9:14 AM,37.6,36.5,96,29.55,2.0,North,25.3,39.1,N/A,Snow,Light Snow,350,2012-10-30 13:14:00
9:34 AM,37.8,36.9,97,29.55,2.0,North,20.7,31.1,N/A,Rain,Rain,350,2012-10-30 13:34:00
9:55 AM,37.8,36.9,97,29.54,1.5,North,21.9,33.4,N/A,Snow,Light Snow,350,2012-10-30 13:55:00
10:14 AM,37.9,37.4,98,29.54,1.2,North,19.6,31.1,N/A,Snow,Light Snow,350,2012-10-30 14:14:00
10:34 AM,38.3,37.6,97,29.54,1.2,North,21.9,29.9,N/A,,Unknown,350,2012-10-30 14:34:00
10:54 AM,38.5,37.9,98,29.53,5.0,North,21.9,35.7,N/A,Rain,Light Rain,350,2012-10-30 14:54:00
11:14 AM,38.8,38.3,98,29.53,2.5,North,18.4,32.2,N/A,,Drizzle,350,2012-10-30 15:14:00
11:35 AM,39.2,38.5,97,29.53,1.8,North,23.0,34.5,N/A,Rain,Light Rain,350,2012-10-30 15:35:00
11:54 AM,39.2,38.5,97,29.52,1.5,North,24.2,32.2,N/A,Rain,Rain,350,2012-10-30 15:54:00
12:14 PM,39.2,38.7,98,29.52,1.5,North,19.6,29.9,N/A,Rain,Light Rain,350,2012-10-30 16:14:00
12:35 PM,39.6,39.2,99,29.51,1.0,NNW,21.9,32.2,N/A,,Overcast,340,2012-10-30 16:35:00
12:54 PM,39.7,39.2,98,29.51,1.5,North,17.3,28.8,N/A,Rain,Rain,350,2012-10-30 16:54:00
1:14 PM,39.7,39.2,98,29.51,1.5,North,19.6,33.4,N/A,Rain,Rain,350,2012-10-30 17:14:00
1:35 PM,39.9,39.4,98,29.51,1.5,North,19.6,32.2,N/A,Rain,Light Rain,350,2012-10-30 17:35:00
1:54 PM,40.1,39.4,97,29.50,1.5,North,18.4,27.6,N/A,,Heavy Drizzle,350,2012-10-30 17:54:00
2:15 PM,40.3,40.1,99,29.50,1.5,North,19.6,28.8,N/A,Rain,Heavy Rain,350,2012-10-30 18:15:00
2:35 PM,40.3,40.1,99,29.50,1.2,North,17.3,29.9,N/A,Rain,Light Rain,350,2012-10-30 18:35:00
2:54 PM,40.5,40.1,99,29.50,1.8,North,19.6,28.8,N/A,Rain,Rain,350,2012-10-30 18:54:00
3:15 PM,40.5,40.1,99,29.49,2.0,North,19.6,26.5,N/A,Rain,Light Rain,350,2012-10-30 19:15:00
3:34 PM,40.3,39.7,98,29.49,1.8,North,20.7,28.8,N/A,Rain,Heavy Rain,350,2012-10-30 19:34:00
3:54 PM,40.3,39.7,98,29.50,2.0,North,17.3,29.9,N/A,Rain,Rain,350,2012-10-30 19:54:00
4:15 PM,40.1,39.6,98,29.50,2.5,North,19.6,27.6,N/A,Rain,Light Rain,350,2012-10-30 20:15:00
4:34 PM,40.1,39.6,98,29.50,2.5,NNW,17.3,21.9,N/A,Rain,Rain,340,2012-10-30 20:34:00
4:54 PM,39.7,39.2,98,29.50,1.8,NNW,16.1,24.2,N/A,,Drizzle,340,2012-10-30 20:54:00
5:15 PM,39.4,38.8,98,29.50,1.5,NNW,16.1,24.2,N/A,Rain,Rain,340,2012-10-30 21:15:00
5:34 PM,39.2,38.7,98,29.50,2.0,NNW,16.1,25.3,N/A,Rain,Rain,340,2012-10-30 21:34:00
5:54 PM,39.4,38.8,98,29.50,2.5,NNW,17.3,23.0,N/A,Rain,Rain,340,2012-10-30 21:54:00
6:14 PM,39.4,39.2,99,29.51,2.0,NNW,15.0,23.0,N/A,Rain,Rain,340,2012-10-30 22:14:00
6:34 PM,39.4,39.2,99,29.51,3.0,NNW,15.0,20.7,N/A,Rain,Light Rain,330,2012-10-30 22:34:00
6:55 PM,39.6,39.2,99,29.51,3.0,NNW,11.5,-,N/A,Rain,Light Rain,340,2012-10-30 22:55:00
7:14 PM,39.7,39.4,99,29.52,3.0,NNW,15.0,21.9,N/A,Rain,Light Rain,340,2012-10-30 23:14:00
7:34 PM,39.7,39.4,99,29.52,2.5,NNW,12.7,19.6,N/A,,Drizzle,340,2012-10-30 23:34:00
7:55 PM,39.7,39.4,99,29.52,3.0,North,17.3,23.0,N/A,,Drizzle,350,2012-10-30 23:55:00
8:14 PM,40.1,39.4,97,29.52,4.0,North,16.1,24.2,N/A,,Light Drizzle,350,2012-10-31 00:14:00
8:35 PM,39.7,39.2,98,29.53,2.5,NNW,13.8,23.0,N/A,,Heavy Drizzle,340,2012-10-31 00:35:00
8:55 PM,39.7,39.2,98,29.53,3.0,NNW,13.8,20.7,N/A,,Light Drizzle,340,2012-10-31 00:55:00
9:14 PM,39.6,39.2,99,29.53,3.0,North,12.7,19.6,N/A,Rain,Rain,350,2012-10-31 01:14:00
9:35 PM,39.4,38.8,98,29.52,2.0,NNW,15.0,21.9,N/A,Rain,Rain,330,2012-10-31 01:35:00
9:54 PM,39.2,38.8,99,29.53,2.5,NNW,15.0,23.0,N/A,,Drizzle,340,2012-10-31 01:54:00
10:14 PM,39.2,38.8,99,29.52,2.5,NNW,16.1,21.9,N/A,Rain,Light Rain,330,2012-10-31 02:14:00
10:35 PM,39.2,38.7,98,29.53,2.0,NNW,16.1,25.3,N/A,Rain,Rain,330,2012-10-31 02:35:00
10:54 PM,38.8,38.5,99,29.53,1.8,NNW,16.1,21.9,N/A,,Drizzle,330,2012-10-31 02:54:00
11:14 PM,38.7,38.3,99,29.52,1.8,NNW,15.0,20.7,N/A,Rain,Light Rain,330,2012-10-31 03:14:00
11:35 PM,38.5,38.3,99,29.52,1.8,NNW,13.8,23.0,N/A,Rain,Rain,330,2012-10-31 03:35:00
11:54 PM,38.5,38.3,99,29.51,1.8,NNW,15.0,23.0,N/A,Rain,Rain,330,2012-10-31 03:54:00